Weather History for Cape Girardeau, MO

Change the Weather History Date:

Friday, May 23, 2014

  Actual Average Record
Temperature  
Mean Temperature 75 °F 69 °F  
Max Temperature 84 °F 80 °F 93 °F (1970)
Min Temperature 66 °F 58 °F 38 °F (1963)
Degree Days  
Heating Degree Days 0 1  
Month to date heating degree days 78 61  
Since 1 July heating degree days 4941 4379  
Cooling Degree Days 10 5  
Month to date cooling degree days 113 74  
Year to date cooling degree days 124 105  
Growing Degree Days 25 (Base 50)    
Moisture  
Dew Point 59 °F    
Average Humidity 61    
Maximum Humidity 81    
Minimum Humidity 40    
Precipitation  
Precipitation 0.00 in 0.16 in 2.45 in (1966)
Month to date precipitation 4.29 4.26  
Year to date precipitation 17.75 19.90  
Sea Level Pressure  
Sea Level Pressure 30.08 in    
Wind  
Wind Speed 6 mph (NE)    
Max Wind Speed 13 mph    
Max Gust Speed 16 mph    
Visibility 10 miles    
Events      
T = Trace of Precipitation, MM = Missing Value Source: NWS Daily Summary

Daily Weather History Graph

Daily Weather History Graph

Search for Another Location

Airport:

Trip Planner

Search our weather history database for the weather conditions in past years. The results will help you decide how hot, cold, wet, or windy it might be!

Date:

Astronomy

May. 23, 2014 Rise Set
Actual Time 5:43 AM CDT 8:06 PM CDT
Civil Twilight 5:14 AM CDT 8:36 PM CDT
Nautical Twilight 4:37 AM CDT 9:13 PM CDT
Astronomical Twilight 3:57 AM CDT 9:53 PM CDT
Moon 2:31 AM CDT (5/23) 3:05 PM CDT (5/23)
Length of Visible Light 15h 22m
Length of Day
14h 22m
Waning Crescent, 27% of the Moon is Illuminated
May 23
Waning Crescent
May 28
New
Jun 5
First Quarter
Jun 12
Full
Jun 19
Last Quarter

Hourly Weather History & Observations

Time (CDT) Temp. Heat Index Dew Point Humidity Pressure Visibility Wind Dir Wind Speed Gust Speed Precip Events Conditions
12:53 AM 72.0 °F - 60.1 °F 66% 30.07 in 10.0 mi NNE 6.9 mph - N/A   Mostly Cloudy
1:53 AM 70.0 °F - 59.0 °F 68% 30.07 in 10.0 mi NE 3.5 mph - N/A   Partly Cloudy
2:53 AM 68.0 °F - 59.0 °F 73% 30.06 in 10.0 mi NE 5.8 mph - N/A   Clear
3:53 AM 66.9 °F - 59.0 °F 76% 30.07 in 10.0 mi ENE 4.6 mph - N/A   Clear
4:53 AM 66.2 °F - 59.0 °F 78% 30.07 in 10.0 mi NE 5.8 mph - N/A   Clear
5:53 AM 66.9 °F - 59.0 °F 76% 30.10 in 10.0 mi NNW 10.4 mph - N/A   Overcast
6:53 AM 66.9 °F - 60.1 °F 79% 30.09 in 10.0 mi ENE 5.8 mph - N/A   Clear
7:53 AM 69.1 °F - 60.1 °F 73% 30.10 in 10.0 mi NE 9.2 mph - N/A   Clear
8:53 AM 72.0 °F - 60.1 °F 66% 30.12 in 10.0 mi ENE 8.1 mph - N/A   Clear
9:53 AM 75.2 °F - 59.0 °F 57% 30.12 in 10.0 mi East 10.4 mph - N/A   Clear
10:53 AM 78.1 °F - 59.0 °F 52% 30.10 in 10.0 mi ENE 8.1 mph - N/A   Clear
11:53 AM 80.1 °F 80.6 °F 57.9 °F 47% 30.12 in 10.0 mi NNE 10.4 mph - N/A   Clear
12:53 PM 82.0 °F 82.1 °F 59.0 °F 45% 30.11 in 10.0 mi North 5.8 mph - N/A   Partly Cloudy
1:53 PM 81.0 °F 81.1 °F 57.9 °F 45% 30.10 in 10.0 mi East 8.1 mph - N/A   Clear
2:53 PM 82.9 °F 82.4 °F 57.0 °F 41% 30.08 in 10.0 mi NNE 5.8 mph - N/A   Clear
3:53 PM 84.0 °F 83.3 °F 57.0 °F 40% 30.07 in 10.0 mi ENE 8.1 mph - N/A   Scattered Clouds
4:53 PM 82.9 °F 82.6 °F 57.9 °F 42% 30.06 in 10.0 mi NNE 9.2 mph - N/A   Scattered Clouds
5:53 PM 80.1 °F 80.6 °F 57.9 °F 47% 30.05 in 10.0 mi NNE 8.1 mph - N/A   Scattered Clouds
6:53 PM 79.0 °F - 57.9 °F 48% 30.05 in 10.0 mi NNE 8.1 mph - N/A   Mostly Cloudy
7:53 PM 75.9 °F - 57.9 °F 54% 30.06 in 10.0 mi Calm Calm - N/A   Clear
8:53 PM 73.9 °F - 59.0 °F 59% 30.06 in 10.0 mi Calm Calm - N/A   Clear
9:53 PM 70.0 °F - 61.0 °F 73% 30.08 in 10.0 mi Calm Calm - N/A   Clear
10:53 PM 69.1 °F - 61.0 °F 75% 30.09 in 10.0 mi Calm Calm - N/A   Clear
11:53 PM 69.8 °F - 60.8 °F 73% 30.09 in 10.0 mi ENE 3.5 mph - N/A   Clear